COSMOS 2426 (717) (29671 NORAD) Tracking and Keplerian Element Data

This shows tracking and keplerian element data for the satellite.

Feedback or suggestion? Click here.




ElementValue
Catalog29671
NameCOSMOS 2426 (717)
Epoch Orbit8997
Epoch Day198.78646959
Epoch Year2018
RAAN291.6027
Inclination65.2829
Eccentricity0.0019087
Argument of Perigee165.3871
Mean Anonmoly197.1339
Mean Motion2.13102973
Decay Rate-3.8E-07
L11 29671U 06062B 18198.78646959 -.00000038 00000-0 10000-3 0 9996
L22 29671 65.2829 291.6027 0019087 165.3871 197.1339 2.13102973 89976

Live tracking and technical data element details for COSMOS 2426 (717) (NORAD 29671). COSMOS 2426 (717) can be tracked NOW for your location showing map with azimuth and elevation plus other details from your city location.

Track the satellite on the map from your city or location and see movement details for azimuth, elevation, latitude, longitude, range, height, and movement on the map or in text.







IsCatalogInMostPopularTable: catalog: 29671, numindb: 45
Update: records affected: 1



GetName: 29671 COSMOS 2426 (717)

Hit Count: updated at: Wed, 18 Jul 2018 20:23:56 GMT